Hourly Data Report for October 21, 2015

All times are specified in Local Standard Time (LST). Add 1 hour to adjust for Daylight Saving Time where and when it is observed.

TORONTO INTL A
ONTARIO

43°40'36.000" N
79°37'50.000" W
173.40 m
6158731
71624
YYZ

Download Data

Hourly Data (October 2015)
Hourly Data Report for October 21, 2015
Temp Definition
°C
Dew Point Temp Definition
°C
Rel Hum Definition
%
Wind Dir Definition
10's deg

Wind Spd Definition
km/h
Visibility Definition
km
Stn Press Definition
kPa
Hmdx Definition


Wind Chill Definition


Weather Definition


TIME
00:00 Legend Double Dagger 12.9 9.2 78 35 4 24.1 100.13     LegendNANA
01:00 Legend Double Dagger 12.3 9.7 84 30 5 24.1 100.18     Cloudy
02:00 Legend Double Dagger 12.8 9.1 78 1 4 24.1 100.19     LegendNANA
03:00 Legend Double Dagger 12.1 9.3 83 2 4 24.1 100.19     LegendNANA
04:00 Legend Double Dagger 11.5 9.1 85 2 10 24.1 100.23     Mostly Cloudy
05:00 Legend Double Dagger 12.0 8.7 80 6 7 24.1 100.26     LegendNANA
06:00 Legend Double Dagger 10.9 7.6 80 9 13 24.1 100.32     LegendNANA
07:00 Legend Double Dagger 10.2 6.0 75 9 11 24.1 100.34     Cloudy
08:00 Legend Double Dagger 10.0 5.6 74 9 13 24.1 100.42     LegendNANA
09:00 Legend Double Dagger 10.3 6.1 75 10 11 24.1 100.42     LegendNANA
10:00 Legend Double Dagger 9.6 5.4 75 10 14 24.1 100.44     Rain
11:00 Legend Double Dagger 9.5 4.7 72 8 11 24.1 100.40     LegendNANA
12:00 Legend Double Dagger 10.2 4.8 69 10 17 24.1 100.29     LegendNANA
13:00 Legend Double Dagger 9.8 4.8 71 7 11 24.1 100.28     Cloudy
14:00 Legend Double Dagger 10.6 5.8 72 10 14 24.1 100.19     LegendNANA
15:00 Legend Double Dagger 10.5 6.3 75 8 11 24.1 100.16     LegendNANA
16:00 Legend Double Dagger 10.1 6.7 79 10 8 24.1 100.13     Cloudy
17:00 Legend Double Dagger 10.3 7.2 81 9 10 24.1 100.08     LegendNANA
18:00 Legend Double Dagger 10.0 7.4 84 10 10 24.1 99.99     LegendNANA
19:00 Legend Double Dagger 10.6 8.2 85 10 7 19.3 99.97     Mostly Cloudy
20:00 Legend Double Dagger 11.8 10.1 89 15 5 19.3 99.87     LegendNANA
21:00 Legend Double Dagger 12.2 11.0 92 14 6 19.3 99.75     Rain Showers
22:00 Legend Double Dagger 12.0 10.9 93 16 6 16.1 99.65     Cloudy
23:00 Legend Double Dagger 11.9 10.8 93 18 4 16.1 99.66     Rain Showers

Notes on Data Quality.

Legend

  • E = Estimated
  • M = Missing
  • NA = Not Available
  • ‡ = Partner data that is not subject to review by the National Climate Archives
Date modified: